This demonstration page uses our WeatherBlox Daily Observations layout. Learn more.

Left ArrowRight Arrow

53.62937, 11.41316

Hourly Observations for January 15, 2018

Temp ( °F °C ) Dew Point ( °F °C ) Humidity (%) Winds ( mph kmh ) Pressure ( in mb ) Visibility ( mi km ) Precip ( " mm )
5:20 am 05:20 Cloudy 30 -1 25 -4 80 80 SE 13 20 30.12 1020 30 48 N/A
5:50 am 05:50 Cloudy 30 -1 25 -4 80 80 SE 13 20 30.12 1020 30 48 N/A
6:20 am 06:20 Partly Cloudy 30 -1 25 -4 80 80 SE 15 24 30.06 1018 30 48 N/A
6:50 am 06:50 Partly Cloudy 30 -1 25 -4 80 80 SE 14 22 30.06 1018 30 48 N/A
7:20 am 07:20 Mostly Clear 30 -1 25 -4 80 80 ESE 14 22 30.03 1017 7 11 N/A
7:50 am 07:50 Mostly Clear 30 -1 25 -4 80 80 ESE 13 20 30.03 1017 7 11 N/A
8:20 am 08:20 Mostly Clear 30 -1 25 -4 80 80 SE 15 24 30.00 1016 7 11 N/A
8:50 am 08:50 Partly Cloudy 30 -1 25 -4 80 80 SE 12 19 30.00 1016 30 48 N/A
9:20 am 09:20 Mostly Sunny 30 -1 25 -4 80 80 SE 14 22 29.97 1015 30 48 N/A
9:50 am 09:50 Mostly Sunny 32 0 25 -4 75 75 SE 16 26 29.97 1015 7 11 N/A
10:20 am 10:20 Mostly Sunny 32 0 27 -3 80 80 SE 16 26 29.94 1014 30 48 N/A
10:50 am 10:50 Mostly Cloudy 34 1 27 -3 75 75 SSE 18 30 29.91 1013 30 48 N/A
11:20 am 11:20 Mostly Cloudy 34 1 27 -3 75 75 SE 17 28 29.91 1013 30 48 N/A
11:50 am 11:50 Mostly Cloudy 34 1 27 -3 75 75 SE 18 30 29.88 1012 30 48 N/A
12:20 pm 12:20 Mostly Cloudy 34 1 27 -3 75 75 SE 20 31 29.85 1011 30 48 N/A
12:50 pm 12:50 Mostly Sunny 36 2 27 -3 70 70 SSE 17 28 29.83 1010 7 11 N/A
1:20 pm 13:20 Mostly Cloudy 36 2 27 -3 70 70 SSE 16 26 29.83 1010 30 48 N/A
1:50 pm 13:50 Mostly Cloudy 36 2 28 -2 75 75 SSE 18 30 29.80 1009 30 48 N/A
2:20 pm 14:20 Mostly Cloudy 36 2 28 -2 75 75 SSE 18 30 29.77 1008 30 48 N/A
2:50 pm 14:50 Mostly Cloudy 36 2 28 -2 75 75 SSE 20 31 29.77 1008 30 48 N/A
3:20 pm 15:20 Mostly Sunny 37 3 28 -2 70 70 SSE 17 28 29.74 1007 7 11 N/A
3:50 pm 15:50 Mostly Sunny 37 3 28 -2 70 70 SSE 18 30 29.71 1006 7 11 N/A
4:20 pm 16:20 Mostly Cloudy 37 3 28 -2 70 70 SSE 17 28 29.68 1005 30 48 N/A
4:50 pm 16:50 Mostly Cloudy 37 3 28 -2 70 70 SSE 18 30 29.65 1004 30 48 N/A
5:20 pm 17:20 Mostly Clear 37 3 28 -2 70 70 SSE 18 30 29.65 1004 7 11 N/A
5:50 pm 17:50 Mostly Clear 37 3 28 -2 70 70 SE 18 30 29.62 1003 7 11 N/A

Powered by AerisWeather